Simultaneous Nadir Overpasses (SNOs) Predictions

Prediction of SNOs between AURA and NPP Satellite Orbit:

Table of predicted SNOs for the next 14.0 days since TLE Epoch: 3/1/2019
Index Date (AURA) Time (AURA) Lat,Lon (AURA) SZA (AURA ) Date (NPP) Time (NPP) Lat,Lon (NPP) SZA (NPP ) Distance(km) Time Diff (sec)
1 03/03/2019 19:08:46 79.50, 149.83 99.49 03/03/2019 19:07:40 79.49, 149.72 99.56 2.54 66
2 03/03/2019 19:58:07 -79.74, -40.84 80.87 03/03/2019 19:58:18 -79.73, -40.96 80.86 2.62 11
3 03/06/2019 11:25:13 79.61, -93.51 98.29 03/06/2019 11:24:30 79.61, -93.50 98.32 0.18 43
4 03/06/2019 12:14:34 -79.84, 75.86 82.08 03/06/2019 12:15:08 -79.84, 75.87 82.11 0.33 34
5 03/09/2019 03:41:40 79.72, 23.14 97.07 03/09/2019 03:41:20 79.73, 23.28 97.06 3.11 20
6 03/09/2019 04:31:04 -79.84,-168.30 83.13 03/09/2019 04:32:02 -79.83,-168.45 83.14 3.10 58
7 03/11/2019 19:08:49 -79.54, -29.95 83.71 03/11/2019 19:07:35 -79.54, -29.89 83.67 1.34 74
8 03/11/2019 19:58:09 79.75, 139.23 95.97 03/11/2019 19:58:13 79.75, 139.22 95.97 0.18 4
9 03/14/2019 11:25:17 -79.56, 86.12 84.82 03/14/2019 11:24:27 -79.56, 86.05 84.77 1.53 50




NCC Satellite Simultaneous Nadir Overpasses (SNOs) Prediction Service
